�N����,����,����,����,����,�C��,���x,�~����,�S�V����,�ő�u�ԕ���,,,,,
,,,,,,,,,����,����,����,�N��,,
yyyy/mm/dd,hh:mm:ss,(16),16����,m/s,��,%,mm,KW/�u,(16),16����,m/s,Time,,
2017/11/1,1:00:00,16,�É�,0,-3.3,91.5,0,0,13,���k��,6.9,43,,
2017/11/1,2:00:00,16,�É�,0,-2.8,92.4,0,0,13,���k��,3.4,4,,
2017/11/1,3:00:00,13,���k��,0.7,-2.8,92.7,0,0,12,��,16.1,32,,
2017/11/1,4:00:00,12,��,1,-2.7,92.2,0,0,12,��,2.5,31,,
2017/11/1,5:00:00,16,�É�,0,-2.9,91.3,0,0,12,��,7.2,46,,
2017/11/1,6:00:00,12,��,1.9,-3,91,0,0.01,12,��,3.2,43,,
2017/11/1,7:00:00,13,���k��,0.3,-1.8,91.6,0,0.04,12,��,0.5,17,,
2017/11/1,8:00:00,16,�É�,0.1,0.5,91.7,0,0.1,12,��,3.9,21,,
2017/11/1,9:00:00,9,��쐼,4,11.8,97.9,0,0.19,15,�k�k��,6,14,,
2017/11/1,10:00:00,8,��,3.2,11.8,72.5,0,0.2,10,�쐼,8.2,16,,
2017/11/1,11:00:00,8,��,3,12.6,77,0,0.14,8,��,7.7,27,,
2017/11/1,12:00:00,8,��,3.1,13.4,72.4,0,0.21,8,��,6.8,33,,
2017/11/1,13:00:00,7,��쓌,3.2,14.3,66.3,0,0.38,8,��,6.5,49,,
2017/11/1,14:00:00,8,��,2.2,14.1,61.5,0,0.31,7,��쓌,7.1,2,,
2017/11/1,15:00:00,8,��,0.8,13.6,73.7,0,0.13,9,��쐼,6.9,10,,
2017/11/1,16:00:00,16,�É�,0,12.5,74.5,0,0.06,8,��,4.4,9,,
2017/11/1,17:00:00,16,�É�,0,10.3,80.1,0,0.01,8,��,0.8,6,,
2017/11/1,18:00:00,9,��쐼,1.2,11.7,89.7,0,0,9,��쐼,4.8,58,,
2017/11/1,19:00:00,9,��쐼,0.8,11.8,87.4,0,0,10,�쐼,3.8,12,,
2017/11/1,20:00:00,14,�k��,1.4,9.8,84.2,0,0,9,��쐼,16.8,25,,
2017/11/1,21:00:00,16,�É�,0,8.9,89.5,0,0,15,�k�k��,2.3,2,,
2017/11/1,22:00:00,16,�É�,0,7.3,91.4,0,0,14,�k��,2.9,15,,
2017/11/1,23:00:00,16,�É�,0,3.7,90.6,0,0,15,�k�k��,5.3,43,,
2017/11/1,0:00:00,12,��,4.5,11.2,78.1,0.5,0,12,��,6.9,35,,
2017/11/2,1:00:00,13,���k��,3.1,7.8,70,0,0,12,��,7.4,15,,
2017/11/2,2:00:00,12,��,1.7,3.5,72.5,0,0,11,���쐼,7,6,,
2017/11/2,3:00:00,16,�É�,0,3.3,88.4,0,0,13,���k��,3,1,,
2017/11/2,4:00:00,13,���k��,2,2.1,92.1,0,0,14,�k��,4.1,50,,
2017/11/2,5:00:00,15,�k�k��,1.2,5.5,90.4,0,0,14,�k��,7.1,58,,
2017/11/2,6:00:00,12,��,2.1,3.1,73.6,0,0,13,���k��,4.3,9,,
2017/11/2,7:00:00,14,�k��,0.4,3,83.1,0,0.03,12,��,2.8,24,,
2017/11/2,8:00:00,16,�É�,0,7.6,77.4,0,0.2,13,���k��,1.3,2,,
2017/11/2,9:00:00,14,�k��,0.7,10.9,44.4,0,0.41,14,�k��,2.5,58,,
2017/11/2,10:00:00,16,�É�,0,11.7,42.3,0,0.43,15,�k�k��,3.7,20,,
2017/11/2,11:00:00,16,�É�,0,12.6,46.3,0,0.31,15,�k�k��,1.5,0,,
2017/11/2,12:00:00,7,��쓌,0.3,13.4,37.8,0,0.47,6,�쓌,2,57,,
2017/11/2,13:00:00,7,��쓌,1,12.5,36.5,0,0.56,7,��쓌,4.1,32,,
2017/11/2,14:00:00,5,���쓌,0.7,13.5,43.5,0,0.47,5,���쓌,4.4,15,,
2017/11/2,15:00:00,16,�É�,0,12.5,49.5,0,0.31,4,��,2.4,32,,
2017/11/2,16:00:00,16,�É�,0,10.5,53.9,0,0.11,3,���k��,0.9,0,,
2017/11/2,17:00:00,16,�É�,0,7,67.7,0,0.01,16,�É�,0,0,,
2017/11/2,18:00:00,12,��,1.4,2.4,75.9,0,0,13,���k��,2,53,,
2017/11/2,19:00:00,13,���k��,1.6,2.7,88.4,0,0,13,���k��,2.5,52,,
2017/11/2,20:00:00,13,���k��,1.2,2.4,89.2,0,0,13,���k��,3.1,21,,
2017/11/2,21:00:00,16,�É�,0,1.1,87.8,0,0,12,��,2.2,14,,
2017/11/2,22:00:00,12,��,1.8,0.9,91,0,0,12,��,2.9,54,,
2017/11/2,23:00:00,13,���k��,1.5,1,91.4,0,0,12,��,2.8,14,,
2017/11/2,0:00:00,14,�k��,1.4,1.9,91.7,0,0,14,�k��,2.4,55,,
2017/11/3,1:00:00,13,���k��,0.3,1.9,89.9,0,0,3,���k��,2.2,1,,
2017/11/3,2:00:00,13,���k��,0.8,1.2,90.7,0,0,13,���k��,8.1,59,,
2017/11/3,3:00:00,13,���k��,0.5,1.1,89.9,0,0,14,�k��,2.5,50,,
2017/11/3,4:00:00,13,���k��,1,2.4,91.4,0,0,14,�k��,2.6,15,,
2017/11/3,5:00:00,14,�k��,2.5,4,87.8,0,0,14,�k��,4.1,55,,
2017/11/3,6:00:00,13,���k��,0.7,1.6,84.5,0,0,14,�k��,2.5,0,,
2017/11/3,7:00:00,14,�k��,1,4.9,83.6,0,0.03,14,�k��,3.5,26,,
2017/11/3,8:00:00,14,�k��,1.6,5.4,75.7,0,0.06,13,���k��,4.7,31,,
2017/11/3,9:00:00,14,�k��,2.1,6.1,72.9,0,0.08,14,�k��,3.8,54,,
2017/11/3,10:00:00,16,�É�,0,8.8,71,0,0.21,14,�k��,1.8,2,,
2017/11/3,11:00:00,16,�É�,0,11.5,66.1,0,0.28,16,�É�,0,0,,
2017/11/3,12:00:00,16,�É�,0,13.1,59.2,0,0.49,16,�É�,0,0,,
2017/11/3,13:00:00,5,���쓌,1.2,13.6,65.1,0,0.48,5,���쓌,3.2,56,,
2017/11/3,14:00:00,16,�É�,0,12.6,70.8,0,0.3,5,���쓌,2.9,3,,
2017/11/3,15:00:00,16,�É�,0,12.7,71,0,0.2,6,�쓌,1.2,14,,
2017/11/3,16:00:00,16,�É�,0,11.4,79.9,0,0.08,4,��,2.2,10,,
2017/11/3,17:00:00,16,�É�,0.1,8.4,79.5,0,0.01,12,��,1.8,45,,
2017/11/3,18:00:00,16,�É�,0,9.8,80.1,0,0,14,�k��,4.1,22,,
2017/11/3,19:00:00,14,�k��,1.7,8,80.2,0,0,13,���k��,3,39,,
2017/11/3,20:00:00,16,�É�,0.2,5.8,83.4,0,0,14,�k��,3.6,37,,
2017/11/3,21:00:00,14,�k��,1.9,7,89.9,0,0,14,�k��,3.8,47,,
2017/11/3,22:00:00,13,���k��,1,6,85,0,0,14,�k��,3.9,2,,
2017/11/3,23:00:00,16,�É�,0,5.4,85.4,0,0,13,���k��,3.9,15,,
2017/11/3,0:00:00,16,�É�,0,7.4,86.7,0,0,5,���쓌,4,41,,
2017/11/4,1:00:00,16,�É�,0.1,7,89.8,0,0,11,���쐼,2.8,49,,
2017/11/4,2:00:00,16,�É�,0,7.4,91.1,0,0,13,���k��,2,31,,
2017/11/4,3:00:00,14,�k��,1.5,7.4,92.1,0,0,14,�k��,3.3,59,,
2017/11/4,4:00:00,15,�k�k��,4.9,4.7,89.5,6,0,14,�k��,10.7,40,,
2017/11/4,5:00:00,16,�k,2.9,3.9,91.1,4,0,16,�k,9.5,30,,
2017/11/4,6:00:00,15,�k�k��,2.1,3.4,91.3,1.5,0,15,�k�k��,5.6,14,,
2017/11/4,7:00:00,13,���k��,1.8,3.4,92.8,1,0.02,15,�k�k��,4.6,1,,
2017/11/4,8:00:00,14,�k��,3.4,3.3,88.5,0,0.07,14,�k��,6.8,49,,
2017/11/4,9:00:00,15,�k�k��,2.5,3.8,79.9,0,0.08,15,�k�k��,8.2,36,,
2017/11/4,10:00:00,14,�k��,0.6,4,84.1,0,0.1,15,�k�k��,5.7,5,,
2017/11/4,11:00:00,16,�k,2.6,4.7,76.1,0,0.15,15,�k�k��,5.2,57,,
2017/11/4,12:00:00,16,�k,2.7,4.5,72.5,0,0.19,15,�k�k��,7.3,29,,
2017/11/4,13:00:00,16,�k,1.6,4.4,72.4,0,0.08,1,�k�k��,8.7,7,,
2017/11/4,14:00:00,16,�É�,0,4.8,73.7,0,0.1,15,�k�k��,4.7,2,,
2017/11/4,15:00:00,16,�É�,0,5.7,65.5,0,0.19,16,�É�,0,0,,
2017/11/4,16:00:00,16,�É�,0.2,3.7,64.6,0,0.13,2,�k��,3.2,37,,
2017/11/4,17:00:00,16,�É�,0,1.9,73.8,0,0.01,15,�k�k��,1.8,50,,
2017/11/4,18:00:00,16,�k,0.8,-0.7,83.6,0,0,2,�k��,2,54,,
2017/11/4,19:00:00,11,���쐼,1,-1.3,89.3,0,0,10,�쐼,3,48,,
2017/11/4,20:00:00,12,��,0.7,-0.6,92.5,0,0,12,��,1.9,55,,
2017/11/4,21:00:00,13,���k��,1.1,-1,93.3,0,0,13,���k��,2.5,51,,
2017/11/4,22:00:00,13,���k��,1.5,-2.3,91.9,0,0,12,��,2.3,12,,
2017/11/4,23:00:00,13,���k��,1,-3.3,93.1,0,0,13,���k��,1.5,44,,
2017/11/4,0:00:00,13,���k��,1.5,-1.6,94.4,0,0,14,�k��,2.6,51,,
2017/11/5,1:00:00,13,���k��,1.1,-1.6,85.6,0,0,14,�k��,3.1,15,,
2017/11/5,2:00:00,13,���k��,1.7,-1.7,87.1,0,0,14,�k��,3.3,15,,
2017/11/5,3:00:00,13,���k��,1.1,-2.8,88.9,0,0,13,���k��,2.4,1,,
2017/11/5,4:00:00,16,�É�,0,-2,90.6,0,0,13,���k��,1.2,28,,
2017/11/5,5:00:00,16,�É�,0,-4.1,87.5,0,0,11,���쐼,0.4,1,,
2017/11/5,6:00:00,16,�É�,0,-3.7,89.4,0,0,14,�k��,1.6,31,,
2017/11/5,7:00:00,13,���k��,0.5,-1.5,93.6,0,0.07,12,��,3.2,35,,
2017/11/5,8:00:00,16,�É�,0,1.8,76.3,0,0.24,13,���k��,2.2,22,,
2017/11/5,9:00:00,16,�É�,0,4.6,47.7,0,0.42,14,�k��,1.9,17,,
2017/11/5,10:00:00,16,�É�,0,6.9,33.7,0,0.49,12,��,1.7,4,,
2017/11/5,11:00:00,16,�É�,0.1,8,30.9,0,0.46,11,���쐼,2,50,,
2017/11/5,12:00:00,13,���k��,2.6,8.4,35.6,0,0.62,11,���쐼,6.7,27,,
2017/11/5,13:00:00,16,�É�,0.2,7.9,39.3,0,0.33,13,���k��,4.4,6,,
2017/11/5,14:00:00,16,�É�,0,7.6,44.4,0,0.13,11,���쐼,2.4,5,,
2017/11/5,15:00:00,16,�É�,0,8.1,41.9,0,0.21,11,���쐼,1.4,59,,
2017/11/5,16:00:00,11,���쐼,1.6,5.7,47,0,0.09,12,��,4.9,34,,
2017/11/5,17:00:00,16,�É�,0,1.5,56.6,0,0.01,12,��,4,3,,
2017/11/5,18:00:00,16,�É�,0,-0.5,65.8,0,0,9,��쐼,1.5,23,,
2017/11/5,19:00:00,16,�É�,0,-0.8,77.1,0,0,12,��,1.3,20,,
2017/11/5,20:00:00,16,�É�,0.2,-2.3,80,0,0,12,��,2.1,47,,
2017/11/5,21:00:00,12,��,1.6,-2,85.3,0,0,12,��,2.5,37,,
2017/11/5,22:00:00,12,��,0.8,-2.9,88.2,0,0,12,��,2.4,59,,
2017/11/5,23:00:00,16,�É�,0.1,-2.7,91.4,0,0,12,��,3.1,4,,
2017/11/5,0:00:00,12,��,0.7,-2.7,90.8,0,0,12,��,2.6,39,,
2017/11/6,1:00:00,12,��,1.9,-4.3,89.8,0,0,12,��,4.5,40,,
2017/11/6,2:00:00,12,��,0.5,-3.6,91.1,0,0,10,�쐼,3.6,4,,
2017/11/6,3:00:00,12,��,1,-2.4,93.3,0,0,12,��,4.8,40,,
2017/11/6,4:00:00,12,��,2.5,-1.8,91.8,0,0,12,��,4.2,5,,
2017/11/6,5:00:00,13,���k��,2.2,-2.4,90.1,0,0,13,���k��,3.3,57,,
2017/11/6,6:00:00,13,���k��,0.9,-2.2,90.5,0,0,12,��,4,38,,
2017/11/6,7:00:00,13,���k��,1.1,-1,89.1,0,0.06,12,��,3.9,24,,
2017/11/6,8:00:00,12,��,1,2.8,80.1,0,0.23,12,��,4.3,37,,
2017/11/6,9:00:00,16,�É�,0.1,7.1,67.9,0,0.29,12,��,2.5,4,,
2017/11/6,10:00:00,11,���쐼,4,15.5,44.5,0,0.46,9,��쐼,8,53,,
2017/11/6,11:00:00,11,���쐼,7.4,15.6,43.7,0,0.62,11,���쐼,11.3,52,,
2017/11/6,12:00:00,11,���쐼,5.5,15.9,40.9,0,0.63,12,��,12.5,36,,
2017/11/6,13:00:00,12,��,6.6,16.3,40.7,0,0.55,11,���쐼,11.8,21,,
2017/11/6,14:00:00,12,��,5,16.7,41.7,0,0.43,12,��,10.6,17,,
2017/11/6,15:00:00,11,���쐼,5.1,15.2,46.9,0,0.21,10,�쐼,12.2,56,,
2017/11/6,16:00:00,10,�쐼,1.4,14.1,54,0,0.03,11,���쐼,7.6,6,,
2017/11/6,17:00:00,10,�쐼,2.8,13.1,64.2,0,0,9,��쐼,6.5,56,,
2017/11/6,18:00:00,10,�쐼,1.8,12.4,69.8,0,0,9,��쐼,6.5,0,,
2017/11/6,19:00:00,10,�쐼,2.2,11.8,77.5,0,0,9,��쐼,6.1,58,,
2017/11/6,20:00:00,10,�쐼,2.9,11.9,75.8,0,0,10,�쐼,5.7,51,,
2017/11/6,21:00:00,10,�쐼,1.2,12.2,75.8,0,0,10,�쐼,5.7,1,,
2017/11/6,22:00:00,10,�쐼,2.2,12.7,66.1,0,0,12,��,7.7,22,,
2017/11/6,23:00:00,11,���쐼,2.6,12.3,63.4,0,0,11,���쐼,6,14,,
2017/11/6,0:00:00,16,�É�,0,10.3,59.2,0,0,11,���쐼,5.2,16,,
2017/11/7,1:00:00,2,�k��,0.3,7.8,74.2,0,0,2,�k��,2.5,49,,
2017/11/7,2:00:00,16,�É�,0,5.2,75.4,0,0,1,�k�k��,7.7,15,,
2017/11/7,3:00:00,16,�É�,0.1,4.4,84.8,0,0,12,��,2.5,16,,
2017/11/7,4:00:00,16,�É�,0,4,87.5,0,0,12,��,3.5,41,,
2017/11/7,5:00:00,16,�É�,0.1,3.5,88.3,0,0,12,��,2.5,21,,
2017/11/7,6:00:00,16,�É�,0,2.9,90.4,0,0,12,��,3.3,11,,
2017/11/7,7:00:00,16,�É�,0,4.8,91.8,0,0.02,12,��,2.5,26,,
2017/11/7,8:00:00,13,���k��,0.4,6.2,90.2,0,0.07,12,��,3.4,37,,
2017/11/7,9:00:00,16,�É�,0,11.1,72.9,0,0.25,12,��,3.9,9,,
2017/11/7,10:00:00,16,�É�,0,14.2,55.5,0,0.31,7,��쓌,1.7,30,,
2017/11/7,11:00:00,10,�쐼,1.6,17.1,42.8,0,0.48,10,�쐼,4.6,42,,
2017/11/7,12:00:00,10,�쐼,3.5,17.8,42.2,0,0.51,10,�쐼,9.2,25,,
2017/11/7,13:00:00,11,���쐼,3.6,17.9,38.7,0,0.52,12,��,9.5,39,,
2017/11/7,14:00:00,11,���쐼,3.5,17.5,40.5,0,0.41,12,��,7.4,20,,
2017/11/7,15:00:00,11,���쐼,1.6,16.6,44.9,0,0.24,12,��,5.9,7,,
2017/11/7,16:00:00,16,�É�,0.1,14.7,51.3,0,0.08,11,���쐼,4.1,1,,
2017/11/7,17:00:00,11,���쐼,0.5,13.1,57.5,0,0,9,��쐼,3.2,5,,
2017/11/7,18:00:00,16,�É�,0.1,11.2,58.5,0,0,11,���쐼,4,6,,
2017/11/7,19:00:00,9,��쐼,0.5,12.8,62,0,0,10,�쐼,3,32,,
2017/11/7,20:00:00,8,��,0.4,12.6,70,0,0,9,��쐼,6.8,15,,
2017/11/7,21:00:00,10,�쐼,0.4,12.5,78.1,0,0,10,�쐼,2.7,48,,
2017/11/7,22:00:00,9,��쐼,1.2,12.7,86.6,0,0,11,���쐼,7,5,,
2017/11/7,23:00:00,9,��쐼,1.4,13.1,88.9,0,0,9,��쐼,4.3,48,,
2017/11/7,0:00:00,9,��쐼,2.5,13.4,87,0,0,8,��,5.5,57,,
2017/11/8,1:00:00,9,��쐼,1.6,13.1,91.3,0,0,10,�쐼,5.1,1,,
2017/11/8,2:00:00,9,��쐼,1.9,13.3,90.5,0,0,9,��쐼,4,57,,
2017/11/8,3:00:00,8,��,1,13.9,84.7,0,0,10,�쐼,4.9,31,,
2017/11/8,4:00:00,8,��,0.5,14.1,80.3,0,0,8,��,3.9,49,,
2017/11/8,5:00:00,6,�쓌,0.6,12.9,86,0,0,6,�쓌,3.5,43,,
2017/11/8,6:00:00,16,�É�,0.1,12.2,86.3,0,0,6,�쓌,4.7,5,,
2017/11/8,7:00:00,9,��쐼,2.7,14.1,81.9,0,0.02,9,��쐼,6.5,26,,
2017/11/8,8:00:00,9,��쐼,1.8,14.3,82.2,0,0.1,8,��,5.4,14,,
2017/11/8,9:00:00,9,��쐼,3.2,16.2,66.5,0,0.38,9,��쐼,6.1,57,,
2017/11/8,10:00:00,8,��,3.5,15.2,70.3,0,0.37,8,��,7,10,,
2017/11/8,11:00:00,7,��쓌,3.4,14.9,74,0,0.28,7,��쓌,6.4,43,,
2017/11/8,12:00:00,8,��,3,16.7,66.5,0,0.4,7,��쓌,7.4,37,,
2017/11/8,13:00:00,10,�쐼,3.8,17.6,54.2,0,0.44,10,�쐼,7.9,24,,
2017/11/8,14:00:00,10,�쐼,2.9,16.4,66,0,0.15,10,�쐼,6.5,12,,
2017/11/8,15:00:00,10,�쐼,1.9,15.9,65.5,0,0.12,10,�쐼,5.5,4,,
2017/11/8,16:00:00,9,��쐼,2.6,15.7,65.2,0,0.04,10,�쐼,5.3,59,,
2017/11/8,17:00:00,8,��,2.9,14.8,69.8,0,0.01,10,�쐼,5.7,3,,
2017/11/8,18:00:00,11,���쐼,2,13.4,77.6,0.5,0,8,��,5.7,2,,
2017/11/8,19:00:00,16,�É�,0,10.8,87.4,1.5,0,7,��쓌,2.3,21,,
2017/11/8,20:00:00,16,�É�,0,11.4,94.8,2,0,14,�k��,0.4,57,,
2017/11/8,21:00:00,10,�쐼,0.3,10.4,94,2.5,0,12,��,3.2,13,,
2017/11/8,22:00:00,6,�쓌,1.5,10.1,90.3,0,0,5,���쓌,3.6,54,,
2017/11/8,23:00:00,11,���쐼,0.3,9.3,93.6,0,0,6,�쓌,2.6,0,,
2017/11/8,0:00:00,16,�É�,0,7.5,89.8,0,0,10,�쐼,4.2,10,,
2017/11/9,1:00:00,16,�É�,0,7.3,88.2,0,0,13,���k��,2.5,11,,
2017/11/9,2:00:00,16,�É�,0.2,5.3,89.7,0,0,11,���쐼,2.9,2,,
2017/11/9,3:00:00,13,���k��,0.9,5.3,93.3,0,0,12,��,4.2,46,,
2017/11/9,4:00:00,16,�É�,0,6.5,85,0,0,13,���k��,1.2,59,,
2017/11/9,5:00:00,12,��,0.4,2.8,84.4,0,0,13,���k��,2.3,3,,
2017/11/9,6:00:00,16,�É�,0,3.7,87,0,0,13,���k��,2.5,15,,
2017/11/9,7:00:00,16,�É�,0,4.7,82.5,0,0.04,13,���k��,1.2,39,,
2017/11/9,8:00:00,15,�k�k��,0.8,8.3,65.9,0,0.22,15,�k�k��,1.2,50,,
2017/11/9,9:00:00,14,�k��,1.1,9.7,57.2,0,0.4,14,�k��,6.2,32,,
2017/11/9,10:00:00,14,�k��,3.4,9.9,53.5,0,0.53,15,�k�k��,8.1,36,,
2017/11/9,11:00:00,14,�k��,4.9,9.9,52.1,0,0.58,13,���k��,9.5,46,,
2017/11/9,12:00:00,15,�k�k��,4.8,9.9,46,0,0.61,1,�k�k��,9.9,33,,
2017/11/9,13:00:00,15,�k�k��,3,9.7,47.6,0,0.47,15,�k�k��,7.7,6,,
2017/11/9,14:00:00,14,�k��,3.8,9.3,49.7,0,0.37,15,�k�k��,8.4,20,,
2017/11/9,15:00:00,14,�k��,4.6,8.6,48.4,0,0.28,14,�k��,9.6,48,,
2017/11/9,16:00:00,15,�k�k��,3.3,6.8,52.8,0,0.09,15,�k�k��,9.1,5,,
2017/11/9,17:00:00,15,�k�k��,3.5,5.8,59,0,0.01,15,�k�k��,6.2,50,,
2017/11/9,18:00:00,14,�k��,2.4,5.5,57.7,0,0,14,�k��,6,27,,
2017/11/9,19:00:00,14,�k��,3,5.1,60.8,0,0,14,�k��,5.9,59,,
2017/11/9,20:00:00,14,�k��,2.2,4.8,59.3,0,0,14,�k��,6.2,0,,
2017/11/9,21:00:00,14,�k��,2.1,4.8,58.4,0,0,15,�k�k��,6.4,23,,
2017/11/9,22:00:00,16,�É�,0,3.6,61.9,0,0,14,�k��,5.3,11,,
2017/11/9,23:00:00,12,��,1.5,1.2,69.5,0,0,14,�k��,3.9,8,,
2017/11/9,0:00:00,12,��,0.7,-1.1,74.7,0,0,14,�k��,3.5,41,,
2017/11/10,1:00:00,12,��,1.4,-1.6,80.4,0,0,12,��,2.3,56,,
2017/11/10,2:00:00,12,��,1,-1.8,85.8,0,0,12,��,2.5,55,,
2017/11/10,3:00:00,16,�É�,0.1,-2.2,86.9,0,0,12,��,16.7,14,,
2017/11/10,4:00:00,13,���k��,1,-2.2,87.2,0,0,12,��,7.4,13,,
2017/11/10,5:00:00,16,�É�,0,-4.4,85.4,0,0,12,��,2.5,6,,
2017/11/10,6:00:00,16,�É�,0,-4.2,90.1,0,0,14,�k��,1.8,50,,
2017/11/10,7:00:00,16,�É�,0.2,-2.6,91.6,0,0.04,12,��,1,43,,
2017/11/10,8:00:00,16,�É�,0.1,1.2,82.6,0,0.21,12,��,0.8,5,,
2017/11/10,9:00:00,16,�É�,0,4.5,53.6,0,0.35,12,��,2.9,15,,
2017/11/10,10:00:00,16,�É�,0,6.2,47.1,0,0.41,8,��,2,47,,
2017/11/10,11:00:00,5,���쓌,1.6,7.3,43.2,0,0.57,6,�쓌,3.3,30,,
2017/11/10,12:00:00,5,���쓌,2.4,7.6,51.9,0,0.49,5,���쓌,4.1,51,,
2017/11/10,13:00:00,6,�쓌,3.5,7.5,56.3,0,0.43,6,�쓌,5.5,54,,
2017/11/10,14:00:00,5,���쓌,3.1,7,63.1,0,0.25,6,�쓌,5.2,41,,
2017/11/10,15:00:00,5,���쓌,1.7,6.9,66.4,0,0.1,6,�쓌,4.4,9,,
2017/11/10,16:00:00,4,��,1.2,5.8,70,0,0.04,5,���쓌,2.7,13,,
2017/11/10,17:00:00,16,�É�,0,4.1,73.2,0,0,5,���쓌,2.5,4,,
2017/11/10,18:00:00,16,�É�,0,4.3,78.7,0,0,16,�É�,0,0,,
2017/11/10,19:00:00,8,��,1.4,8.4,74.1,0,0,8,��,3.8,57,,
2017/11/10,20:00:00,9,��쐼,2.5,8.4,74,0,0,8,��,5.4,32,,
2017/11/10,21:00:00,8,��,2.1,9.2,76.9,0,0,8,��,4.7,48,,
2017/11/10,22:00:00,9,��쐼,2,10,72.3,0,0,10,�쐼,6.2,42,,
2017/11/10,23:00:00,8,��,3.6,10.4,76.6,0,0,9,��쐼,7.1,33,,
2017/11/10,0:00:00,8,��,4.7,11.5,79.4,0,0,8,��,7.7,55,,
2017/11/11,1:00:00,8,��,4.4,11.4,79.6,0,0,8,��,8.9,6,,
2017/11/11,2:00:00,8,��,3.2,11.6,83.6,0,0,8,��,7,9,,
2017/11/11,3:00:00,8,��,4.4,12.2,86.7,0,0,7,��쓌,7.3,59,,
2017/11/11,4:00:00,9,��쐼,3.5,11.6,82.3,1.5,0,8,��,8.7,47,,
2017/11/11,5:00:00,9,��쐼,3.9,11.9,89.8,11,0,10,�쐼,10,14,,
2017/11/11,6:00:00,8,��,3.6,11.3,92.1,4,0,9,��쐼,7,59,,
2017/11/11,7:00:00,8,��,3.9,11.9,94.4,2,0,7,��쓌,7.3,4,,
2017/11/11,8:00:00,10,�쐼,5.4,13,59.5,0,0.03,9,��쐼,15.1,46,,
2017/11/11,9:00:00,10,�쐼,5.5,12.8,54.6,0,0.22,10,�쐼,13.6,21,,
2017/11/11,10:00:00,11,���쐼,7.4,12.5,46.9,0,0.5,10,�쐼,14.6,7,,
2017/11/11,11:00:00,11,���쐼,7.4,12.2,47.3,0,0.52,11,���쐼,12.7,44,,
2017/11/11,12:00:00,12,��,5.8,9.9,58.4,0,0.48,10,�쐼,13.4,4,,
2017/11/11,13:00:00,10,�쐼,6.6,11,50.2,0,0.37,10,�쐼,10.6,50,,
2017/11/11,14:00:00,11,���쐼,7.2,8.6,62.6,0,0.32,11,���쐼,10.6,40,,
2017/11/11,15:00:00,11,���쐼,7.4,8.1,55.2,0,0.24,11,���쐼,12.8,6,,
2017/11/11,16:00:00,11,���쐼,7.4,7.8,54.3,0,0.05,11,���쐼,12.3,7,,
2017/11/11,17:00:00,11,���쐼,5.9,6.9,51.6,0,0,12,��,10.1,18,,
2017/11/11,18:00:00,11,���쐼,5.6,5.9,55.1,0,0,11,���쐼,9.7,30,,
2017/11/11,19:00:00,10,�쐼,3.9,6,51.7,0,0,10,�쐼,7.5,25,,
2017/11/11,20:00:00,10,�쐼,2.3,5.3,52.9,0,0,10,�쐼,5.8,42,,
2017/11/11,21:00:00,11,���쐼,2,4.5,58.3,0,0,11,���쐼,4.5,58,,
2017/11/11,22:00:00,16,�É�,0.1,2.1,59.8,0,0,10,�쐼,2,19,,
2017/11/11,23:00:00,16,�É�,0,2,64.3,0,0,12,��,4.6,40,,
2017/11/11,0:00:00,16,�É�,0,0.5,72.2,0,0,11,���쐼,1.6,21,,
2017/11/12,1:00:00,16,�É�,0,-3.4,75.8,0,0,16,�É�,0,0,,
2017/11/12,2:00:00,16,�É�,0,-1.1,80.6,0,0,5,���쓌,3.3,49,,
2017/11/12,3:00:00,14,�k��,0.3,2.9,83.8,0,0,1,�k�k��,2.7,6,,
2017/11/12,4:00:00,14,�k��,0.4,3,70.2,0,0,14,�k��,1.2,50,,
2017/11/12,5:00:00,15,�k�k��,2.7,4.2,63.9,0,0,14,�k��,5.4,52,,
2017/11/12,6:00:00,14,�k��,2.6,4.3,58.1,0,0,13,���k��,16.7,0,,
2017/11/12,7:00:00,15,�k�k��,2.8,4.6,55.2,0,0.05,15,�k�k��,7,13,,
2017/11/12,8:00:00,15,�k�k��,3.5,5.6,53.2,0,0.2,14,�k��,8.6,44,,
2017/11/12,9:00:00,14,�k��,4.5,6.2,47.7,0,0.31,14,�k��,9.5,7,,
2017/11/12,10:00:00,15,�k�k��,4.2,7.4,44.6,0,0.53,14,�k��,9.5,27,,
2017/11/12,11:00:00,14,�k��,4.4,7.6,41.7,0,0.6,14,�k��,8.6,34,,
2017/11/12,12:00:00,14,�k��,5.4,7.5,41.4,0,0.61,13,���k��,9.3,10,,
2017/11/12,13:00:00,15,�k�k��,3.5,7.5,42.6,0,0.56,14,�k��,8.9,32,,
2017/11/12,14:00:00,16,�k,2.6,7.3,42.9,0,0.45,15,�k�k��,8,9,,
2017/11/12,15:00:00,15,�k�k��,3.7,6.1,43.7,0,0.29,15,�k�k��,7.6,56,,
2017/11/12,16:00:00,15,�k�k��,2.5,4.8,48.7,0,0.1,15,�k�k��,7,2,,
2017/11/12,17:00:00,14,�k��,0.6,3.1,55.6,0,0.01,14,�k��,5.9,7,,
2017/11/12,18:00:00,14,�k��,1.5,2.9,61.3,0,0,13,���k��,4.6,46,,
2017/11/12,19:00:00,16,�É�,0.1,2.1,64.5,0,0,14,�k��,4,14,,
2017/11/12,20:00:00,14,�k��,0.3,1.8,65.9,0,0,14,�k��,3.3,29,,
2017/11/12,21:00:00,13,���k��,0.9,0.6,69.8,0,0,14,�k��,7.5,0,,
2017/11/12,22:00:00,16,�É�,0,-3.3,71.2,0,0,14,�k��,2.9,1,,
2017/11/12,23:00:00,13,���k��,0.8,-2,81,0,0,13,���k��,3,38,,
2017/11/12,0:00:00,13,���k��,0.6,-0.5,75.5,0,0,14,�k��,4.4,41,,
2017/11/13,1:00:00,16,�É�,0,-3.6,76.9,0,0,13,���k��,6.5,21,,
2017/11/13,2:00:00,16,�É�,0,-3.7,81.8,0,0,13,���k��,1.9,3,,
2017/11/13,3:00:00,16,�É�,0,-4,83.1,0,0,13,���k��,1.3,53,,
2017/11/13,4:00:00,16,�É�,0,-5.1,84.4,0,0,13,���k��,2,11,,
2017/11/13,5:00:00,16,�É�,0,-5.5,81.6,0,0,13,���k��,1.3,29,,
2017/11/13,6:00:00,16,�É�,0,-6.8,86.7,0,0,13,���k��,1.2,54,,
2017/11/13,7:00:00,13,���k��,0.3,-4.1,93.3,0,0.05,13,���k��,2.5,37,,
2017/11/13,8:00:00,16,�É�,0.1,-0.2,71.6,0,0.22,12,��,7.1,10,,
2017/11/13,9:00:00,16,�É�,0,3.3,54.3,0,0.39,14,�k��,2.5,9,,
2017/11/13,10:00:00,16,�É�,0.1,6.1,37.7,0,0.51,4,��,2,48,,
2017/11/13,11:00:00,4,��,2.2,7.2,49.2,0,0.58,5,���쓌,4,55,,
2017/11/13,12:00:00,5,���쓌,2.2,7.3,53.8,0,0.58,5,���쓌,5,10,,
2017/11/13,13:00:00,5,���쓌,2.5,7.2,50.1,0,0.53,4,��,4.3,26,,
2017/11/13,14:00:00,5,���쓌,1.8,7.8,54.6,0,0.41,5,���쓌,4.3,7,,
2017/11/13,15:00:00,4,��,2.5,7.2,63.4,0,0.2,4,��,3.9,54,,
2017/11/13,16:00:00,16,�É�,0,4.3,66.6,0,0.08,3,���k��,3.4,12,,
2017/11/13,17:00:00,16,�É�,0,4,76.3,0,0,12,��,1.2,43,,
2017/11/13,18:00:00,16,�É�,0,4.3,77.7,0,0,12,��,1.9,15,,
2017/11/13,19:00:00,16,�É�,0,4.8,76.1,0,0,14,�k��,0.9,52,,
2017/11/13,20:00:00,16,�É�,0,4.2,77.9,0,0,16,�É�,0,0,,
2017/11/13,21:00:00,16,�É�,0,5,76.1,0,0,14,�k��,3.2,30,,
2017/11/13,22:00:00,13,���k��,0.5,4.7,76.4,0,0,13,���k��,2.7,59,,
2017/11/13,23:00:00,14,�k��,0.5,4.5,78,0,0,14,�k��,3.3,3,,
2017/11/13,0:00:00,16,�É�,0,2.8,79.4,0,0,15,�k�k��,2.5,26,,
2017/11/14,1:00:00,16,�É�,0.1,1.8,85.3,0,0,14,�k��,2.5,59,,
2017/11/14,2:00:00,16,�É�,0.2,2.6,89.5,0,0,14,�k��,2.5,3,,
2017/11/14,3:00:00,14,�k��,2,2.6,90.6,0,0,14,�k��,4.5,24,,
2017/11/14,4:00:00,14,�k��,1.9,2.6,89.8,0,0,14,�k��,4.6,32,,
2017/11/14,5:00:00,14,�k��,1.8,2.3,89.5,0,0,14,�k��,5.1,29,,
2017/11/14,6:00:00,13,���k��,0.5,0.4,89.4,0,0,14,�k��,3.8,1,,
2017/11/14,7:00:00,16,�É�,0,1.4,92.9,0,0.01,13,���k��,4,44,,
2017/11/14,8:00:00,16,�É�,0.2,3.8,84.5,0,0.14,2,�k��,2.2,59,,
2017/11/14,9:00:00,2,�k��,0.3,7.7,72.6,0,0.31,3,���k��,2.6,26,,
2017/11/14,10:00:00,3,���k��,1.3,10.9,66.9,0,0.49,3,���k��,2.8,30,,
2017/11/14,11:00:00,16,�É�,0,13.2,53.9,0,0.5,4,��,2.5,11,,
2017/11/14,12:00:00,9,��쐼,3,16.5,46.3,0,0.52,8,��,6,47,,
2017/11/14,13:00:00,9,��쐼,4.2,15.7,42.2,0,0.4,8,��,8.8,52,,
2017/11/14,14:00:00,9,��쐼,2.8,15.4,52.8,0,0.16,9,��쐼,8,34,,
2017/11/14,15:00:00,11,���쐼,4.9,11.3,78,1,0.05,13,���k��,9.7,34,,
2017/11/14,16:00:00,9,��쐼,3.5,11.1,85.3,0,0.03,9,��쐼,7,55,,
2017/11/14,17:00:00,10,�쐼,3,10.7,82.2,0,0,9,��쐼,7.3,1,,
2017/11/14,18:00:00,10,�쐼,3.1,11.9,73.6,0,0,10,�쐼,6.5,21,,
2017/11/14,19:00:00,12,��,1.1,11.6,72.6,0,0,10,�쐼,6,15,,
2017/11/14,20:00:00,12,��,2.7,10.6,71.3,0,0,12,��,7.3,42,,
2017/11/14,21:00:00,13,���k��,1.6,9.4,60.9,0,0,13,���k��,4.4,5,,
2017/11/14,22:00:00,16,�É�,0,7.7,64.7,0,0,12,��,3.6,2,,
2017/11/14,23:00:00,13,���k��,1.5,9.5,50.6,0,0,12,��,7.2,38,,
2017/11/14,0:00:00,12,��,3.2,9,43.4,0,0,12,��,8.3,45,,
2017/11/15,1:00:00,9,��쐼,0.9,8,47.6,0,0,12,��,6.4,8,,
2017/11/15,2:00:00,12,��,5,8.1,45.4,0,0,11,���쐼,7.2,54,,
2017/11/15,3:00:00,13,���k��,4.1,6.9,47.8,0,0,12,��,8.9,1,,
2017/11/15,4:00:00,12,��,3.9,6.8,46.9,0,0,12,��,7,11,,
2017/11/15,5:00:00,13,���k��,3.7,4.8,47.6,0,0,12,��,8.3,7,,
2017/11/15,6:00:00,12,��,5.1,6.1,40,0,0,12,��,8.1,7,,
2017/11/15,7:00:00,12,��,6.6,6.1,36.3,0,0.04,13,���k��,9.1,50,,
2017/11/15,8:00:00,3,���k��,2.1,4.3,56.4,0,0.15,12,��,8.2,1,,
2017/11/15,9:00:00,16,�É�,0,6.7,42.2,0,0.33,3,���k��,1.8,5,,
2017/11/15,10:00:00,5,���쓌,3.1,7.2,44.6,0,0.5,5,���쓌,4.5,54,,
2017/11/15,11:00:00,12,��,6.7,8.5,30.2,0,0.58,12,��,9.4,51,,
2017/11/15,12:00:00,11,���쐼,6,8.4,31.3,0,0.59,11,���쐼,10.6,4,,
2017/11/15,13:00:00,10,�쐼,5.3,8.1,33.8,0,0.54,11,���쐼,7.5,27,,
2017/11/15,14:00:00,10,�쐼,3.9,6.9,36.9,0,0.37,10,�쐼,8.3,8,,
2017/11/15,15:00:00,9,��쐼,2,6.6,44.5,0,0.07,10,�쐼,6,1,,
2017/11/15,16:00:00,10,�쐼,2.5,5.2,51.1,0,0.03,10,�쐼,5.4,53,,
2017/11/15,17:00:00,10,�쐼,2.3,4.6,61.6,0,0,10,�쐼,5.2,24,,
2017/11/15,18:00:00,10,�쐼,1.3,4.7,66.2,0,0,10,�쐼,4.7,31,,
2017/11/15,19:00:00,8,��,3,5.4,73,0,0,8,��,5.3,53,,
2017/11/15,20:00:00,16,�É�,0,4.2,80.2,0,0,8,��,1.5,14,,
2017/11/15,21:00:00,16,�É�,0,3.4,84.5,0,0,14,�k��,0.4,30,,
2017/11/15,22:00:00,13,���k��,0.5,2.9,88.6,0.5,0,12,��,3.3,58,,
2017/11/15,23:00:00,16,�É�,0,2.2,89.8,0,0,14,�k��,2.9,19,,
2017/11/15,0:00:00,16,�É�,0,1.7,91.5,0,0,14,�k��,2.7,37,,
2017/11/16,1:00:00,16,�É�,0,-0.2,91.2,0,0,16,�É�,0,0,,
2017/11/16,2:00:00,16,�É�,0,-0.7,91.8,0,0,16,�É�,0,0,,
2017/11/16,3:00:00,14,�k��,1.5,-0.6,94.8,0,0,14,�k��,3.9,41,,
2017/11/16,4:00:00,14,�k��,0.8,-0.6,95.3,0,0,14,�k��,4.6,31,,
2017/11/16,5:00:00,16,�É�,0,-1.6,93.1,0,0,14,�k��,3.5,4,,
2017/11/16,6:00:00,16,�É�,0,-1.7,93.9,0,0,14,�k��,2,7,,
2017/11/16,7:00:00,16,�É�,0,-2.2,94.4,0,0.02,13,���k��,1.1,13,,
2017/11/16,8:00:00,16,�É�,0,0.9,95,0,0.12,14,�k��,3.1,35,,
2017/11/16,9:00:00,13,���k��,1,3,70.7,0,0.37,14,�k��,3.5,57,,
2017/11/16,10:00:00,15,�k�k��,0.4,4.8,59.1,0,0.5,13,���k��,1.5,21,,
2017/11/16,11:00:00,16,�É�,0.2,5.5,53.4,0,0.45,15,�k�k��,2.5,52,,
2017/11/16,12:00:00,16,�É�,0.1,7.4,46.3,0,0.42,14,�k��,4,39,,
2017/11/16,13:00:00,15,�k�k��,0.7,7,33.6,0,0.53,13,���k��,3.8,58,,
2017/11/16,14:00:00,15,�k�k��,2.6,6.9,33.5,0,0.43,15,�k�k��,4.9,58,,
2017/11/16,15:00:00,14,�k��,2.8,5.4,46.2,0,0.24,14,�k��,6.2,30,,
2017/11/16,16:00:00,14,�k��,0.5,3.3,54.7,0,0.08,1,�k�k��,7,24,,
2017/11/16,17:00:00,14,�k��,1.4,1.8,60.2,0,0,16,�k,4.3,51,,
2017/11/16,18:00:00,13,���k��,1,0.2,70.9,0,0,13,���k��,5.1,7,,
2017/11/16,19:00:00,16,�É�,0,-0.1,70.8,0,0,14,�k��,4.6,35,,
2017/11/16,20:00:00,16,�É�,0.2,-1.6,73.5,0,0,13,���k��,2.7,44,,
2017/11/16,21:00:00,16,�É�,0.2,-3,81.4,0,0,12,��,3.3,26,,
2017/11/16,22:00:00,16,�É�,0,-2.3,83.3,0,0,12,��,2,2,,
2017/11/16,23:00:00,13,���k��,0.8,-3.7,82.7,0,0,14,�k��,6.7,8,,
2017/11/16,0:00:00,13,���k��,1.9,-2.6,81.7,0,0,13,���k��,3.3,34,,
2017/11/17,1:00:00,13,���k��,2.5,-3.7,79.1,0,0,13,���k��,4.2,28,,
2017/11/17,2:00:00,13,���k��,1.7,-3.7,83.4,0,0,13,���k��,3.6,0,,
2017/11/17,3:00:00,14,�k��,1.9,-3.3,83,0,0,13,���k��,3.2,56,,
2017/11/17,4:00:00,14,�k��,1.9,-3,79,0,0,14,�k��,3.5,38,,
2017/11/17,5:00:00,16,�É�,0,-5.9,79.7,0,0,14,�k��,2.6,0,,
2017/11/17,6:00:00,16,�É�,0,-7.7,85.3,0,0,13,���k��,2.4,19,,